Location: Daouli
(14.8671°N, 3.2030°W)
Time: 02:16:02
(UTC+00:00)

Cosmos-2242 - Pass Details

Date: 29 October 2020
Orbit: 592 x 616 km, 82.5° (Epoch: 02 December)

Event Time Altitude Azimuth Distance (km) Brightness Sun altitude
Rises 18:37:09 0° 166° (SSE) 2,814 6.4 -13.1°
Reaches altitude 10° 18:39:30 10° 157° (SSE) 1,914 5.5 -13.7°
Maximum altitude 18:43:18 33° 92° (E) 992 3.6 -14.6°
Enters shadow 18:45:58 17° 37° (NE) 1,515 4.6 -15.2°
